Wind_Speed
59 58 58 56 56 55 54 53 53 53 53 52 51 51 50 48 47 48 46 45 43 42 42 41 42 42 41 41 42 44 44 45 39 38 40 42 37 37 32 29 32 32 29 27 24
60 60 60 59 59 59 58 56 57 57 57 56 56 55 54 52 51 50 49 47 47 48 47 46 46 44 43 43 43 46 46 46 43 43 40 40 37 42 32 31 29 33 32 29 26
61 62 62 62 61 60 60 60 60 60 60 59 59 57 57 57 55 52 53 52 51 51 50 50 51 50 47 47 47 47 50 48 46 51 41 40 40 40 33 30 31 29 31 28 29
63 64 63 62 61 60 60 59 60 61 62 62 62 60 60 61 58 56 55 54 54 54 53 53 52 52 52 52 51 51 51 50 48 50 40 43 43 40 37 31 32 30 32 26 31
67 66 65 64 64 63 63 63 64 64 64 65 65 64 63 63 60 58 56 56 57 57 56 55 55 55 55 55 55 55 51 55 56 49 42 45 45 42 43 36 33 31 33 30 31
69 68 67 67 66 65 65 64 65 65 65 66 66 65 66 62 61 62 61 60 61 62 60 60 57 57 58 54 57 55 54 53 54 48 46 44 45 48 41 39 37 31 35 33 30
72 71 70 68 67 65 64 63 64 64 66 65 66 66 67 61 63 64 62 63 63 63 64 63 61 60 56 56 56 57 57 57 58 53 50 49 43 46 45 43 38 35 38 35 30
72 71 70 68 66 65 65 65 65 65 65 66 66 67 67 62 64 64 66 64 66 65 63 62 61 60 58 58 57 57 58 57 54 54 53 50 43 44 49 48 43 43 42 41 34
73 71 69 68 67 66 66 67 66 66 66 67 69 68 66 64 66 66 69 67 65 64 63 62 60 59 59 59 58 59 56 53 51 53 51 53 43 43 50 51 47 44 46 45 39
72 72 70 69 67 67 66 67 67 67 67 70 71 72 72 71 68 66 66 64 65 61 62 63 62 63 62 64 61 54 53 52 51 52 52 51 42 43 50 49 50 46 46 43 40
74 73 72 70 68 65 66 68 68 70 71 75 72 69 68 64 63 64 64 63 62 61 61 62 65 65 60 59 55 53 53 55 54 54 57 53 47 46 47 50 45 51 48 45 39
75 73 74 72 70 69 70 68 64 67 69 65 61 62 62 62 64 64 64 63 61 61 56 57 59 51 55 53 54 53 54 52 52 56 55 55 49 51 48 46 46 43 49 49 42
78 76 76 75 74 76 74 68 67 68 68 66 64 57 57 63 61 59 63 62 64 63 63 62 49 49 55 56 57 56 56 52 54 57 55 56 51 49 47 47 49 47 45 49 49
80 78 77 76 79 76 74 70 71 71 68 68 61 64 60 62 61 60 57 63 64 64 62 62 55 53 51 51 50 55 52 53 51 55 54 58 56 48 46 43 45 46 46 43 45
82 79 78 79 77 76 71 74 75 71 71 65 67 60 58 61 55 56 56 59 64 65 62 61 58 56 54 48 47 42 49 51 53 56 56 56 59 46 48 44 45 47 46 47 49
75 75 74 74 76 72 74 73 75 72 72 73 48 58 64 61 59 59 56 56 54 62 62 60 59 52 47 43 40 42 42 43 45 48 55 51 55 50 43 44 48 47 47 51 51
55 59 66 68 69 69 72 69 68 76 76 57 67 63 54 67 64 60 59 59 61 56 60 62 60 55 50 49 42 40 38 38 40 45 50 49 46 45 41 44 46 45 49 51 50
42 40 41 49 58 61 59 65 63 75 77 78 38 39 61 60 66 64 60 59 51 52 53 58 60 57 51 46 43 39 42 46 51 55 48 50 46 45 45 39 40 42 47 48 50
52 52 54 53 53 53 59 69 74 62 77 78 81 55 33 58 64 64 68 62 62 52 53 52 56 55 55 50 47 49 47 48 61 61 62 57 50 46 46 43 45 42 47 46 47
53 54 53 51 55 55 65 72 75 58 71 69 66 78 77 59 65 68 63 65 47 43 47 48 50 52 49 50 48 43 44 46 52 51 43 43 45 39 37 36 37 34 31 37 40
48 48 46 47 49 60 57 72 73 61 67 78 53 65 61 66 67 42 57 61 57 50 41 44 50 51 50 50 48 46 47 52 33 35 35 34 32 32 35 35 31 33 29 33 36
43 45 47 48 52 53 62 58 75 64 69 62 80 65 46 40 44 52 44 58 45 42 46 43 45 45 47 42 37 43 47 43 32 29 25 29 29 35 36 39 36 33 26 27 32
41 41 44 48 56 60 48 56 69 75 53 70 55 69 76 58 40 47 43 49 59 41 38 41 48 47 49 53 57 56 50 44 47 46 44 37 36 39 41 42 41 34 32 33 35
41 42 44 51 56 56 39 40 67 73 50 60 62 46 53 52 43 32 38 50 45 54 44 40 44 46 46 48 54 55 55 48 45 49 46 42 37 38 38 35 41 42 36 39 41
45 39 45 48 55 55 35 23 41 60 54 61 58 62 56 65 51 48 37 40 40 41 45 41 39 42 43 48 50 50 51 45 41 36 35 29 28 29 35 40 43 47 38 42 46
50 30 41 43 33 44 47 36 38 58 68 48 51 56 73 52 43 42 31 32 37 37 31 33 36 37 38 40 41 45 49 41 44 42 43 41 36 33 43 45 47 50 52 49 45
39 33 30 41 35 47 43 47 34 56 69 55 37 43 52 49 48 45 38 27 24 23 25 29 33 34 37 39 41 43 40 42 44 45 46 48 45 44 43 46 48 52 52 55 58
Wind_Direction
242 244 245 246 248 249 250 252 252 253 253 253 253 254 256 255 254 253 254 255 256 256 256 256 259 262 265 269 274 278 278 284 283 269 268 274 272 279 282 280 279 270 266 265 258
242 242 244 244 246 248 250 251 253 252 252 253 253 255 256 256 256 257 257 258 258 257 257 258 261 262 264 266 268 272 273 279 279 274 270 273 267 271 274 275 275 273 268 267 262
244 243 244 245 245 247 248 249 251 252 253 253 252 253 254 256 255 257 256 257 257 258 258 258 259 261 263 265 268 268 271 273 277 276 278 269 267 263 268 271 268 270 267 266 260
245 246 245 245 246 247 247 248 249 250 251 252 253 253 253 254 254 254 255 258 259 260 259 259 260 260 262 263 266 268 269 273 274 276 273 266 265 258 259 263 263 263 266 253 257
247 247 246 246 246 246 248 248 249 249 250 251 252 253 252 252 254 256 255 256 257 258 258 258 258 259 258 260 262 265 269 270 272 275 269 264 262 258 254 260 254 258 262 258 256
249 248 247 247 248 249 250 250 250 250 250 249 250 250 251 252 252 252 253 251 252 254 255 255 255 256 257 259 261 263 265 270 271 269 266 264 257 258 258 254 250 252 259 256 249
251 250 250 249 249 248 249 249 249 249 249 247 247 248 248 252 251 252 253 252 251 253 252 252 253 255 257 259 260 262 263 263 265 266 267 267 263 262 253 248 248 253 251 248 248
249 249 250 249 249 249 249 249 249 247 247 247 246 247 251 251 250 252 254 253 252 248 250 251 251 253 255 258 260 262 261 259 265 267 265 263 264 256 254 249 246 251 249 245 242
249 249 248 249 249 248 248 247 246 246 245 244 246 246 249 250 250 250 249 249 252 251 250 251 251 250 250 254 256 256 260 266 262 258 256 260 260 254 254 251 244 250 252 251 246
251 252 251 249 248 247 246 244 242 243 243 243 243 246 249 246 244 245 248 249 250 251 251 251 248 249 251 250 255 259 260 259 258 255 257 259 258 252 254 253 249 246 253 255 252
250 250 250 251 249 246 243 240 241 240 240 244 247 251 252 249 244 245 247 247 246 247 249 247 244 250 252 251 254 253 251 252 254 251 254 255 255 254 252 256 254 248 249 258 248
249 249 249 248 248 245 242 244 243 244 242 240 241 239 239 239 239 240 241 242 241 243 243 242 246 251 241 244 244 246 248 251 251 254 254 257 254 250 249 252 256 253 250 254 249
248 247 246 246 245 243 244 245 239 240 240 240 241 241 242 243 241 238 238 241 242 240 240 242 245 240 241 241 243 245 250 251 251 252 254 255 254 251 251 250 255 257 253 252 256
249 248 246 245 243 243 243 241 237 236 237 239 234 236 234 240 237 237 238 236 238 239 240 243 239 240 240 242 245 245 249 248 249 253 255 257 259 251 252 250 253 257 257 256 258
250 247 246 245 245 244 243 236 232 230 230 241 234 233 232 234 238 237 237 237 237 237 238 241 239 239 241 244 241 244 246 247 248 252 255 255 260 254 249 248 250 254 259 256 253
247 246 242 238 239 239 234 230 227 223 226 224 227 230 231 229 230 229 231 236 237 236 235 236 239 238 238 235 236 240 244 247 250 253 255 256 260 259 256 252 250 253 258 257 256
237 235 235 231 233 228 226 222 220 223 219 222 230 226 235 230 230 229 229 233 233 232 231 232 235 237 232 233 236 233 238 242 249 249 254 253 255 265 255 253 252 251 254 261 257
207 205 206 212 213 214 213 214 218 221 217 217 213 200 224 229 227 227 226 230 230 234 234 232 232 230 232 234 228 237 247 253 252 256 262 253 258 262 258 251 253 255 258 260 256
203 202 203 202 200 202 204 207 206 222 217 218 216 218 215 219 224 223 224 231 235 235 236 236 236 235 237 235 234 240 246 255 259 256 252 250 263 259 258 253 255 256 259 267 263
207 208 211 207 203 201 208 206 209 215 219 209 221 222 226 228 223 223 225 224 224 234 238 236 236 233 231 233 232 239 244 249 215 225 240 247 247 251 259 267 263 272 274 265 262
210 212 202 203 203 202 209 207 209 213 215 208 209 220 227 229 223 228 231 230 233 240 239 234 236 234 232 233 234 230 232 231 230 229 228 245 253 263 268 275 273 263 261 260 261
206 206 202 200 197 211 215 208 204 211 208 215 211 204 210 204 215 229 231 228 222 232 231 234 233 235 232 235 228 224 233 227 235 235 247 255 253 263 270 275 274 272 278 269 264
196 203 206 204 202 199 202 212 206 214 222 208 212 219 218 229 233 235 232 223 227 223 226 230 234 236 232 233 238 246 245 243 245 261 260 271 259 259 258 261 270 272 272 272 272
201 202 203 207 201 205 203 200 210 202 192 210 207 209 216 209 205 216 228 223 227 230 236 235 238 242 242 243 242 245 253 261 264 265 268 270 250 252 256 260 261 264 266 268 268
197 198 210 207 201 198 185 192 196 202 196 197 208 209 212 210 220 230 222 212 227 232 229 235 240 247 248 250 248 248 252 254 259 260 247 246 243 247 253 256 258 260 267 264 266
203 190 203 207 205 206 204 189 204 204 204 199 198 213 215 212 223 228 215 228 233 233 229 234 241 243 248 252 253 254 251 251 245 245 255 247 247 258 266 264 259 258 259 262 261
197 201 192 196 201 202 196 199 175 200 211 206 186 195 209 217 220 224 230 223 226 224 224 235 242 247 249 249 249 249 250 250 251 252 255 253 251 259 256 257 259 259 262 266 269
Height
5740 5745 5750 5754 5759 5764 5768 5772 5776 5779 5783 5787 5790 5793 5798 5803 5808 5812 5816 5819 5821 5824 5826 5829 5832 5835 5837 5839 5841 5843 5846 5849 5853 5853 5854 5856 5859 5860 5860 5860 5862 5863 5861 5862 5861
5728 5733 5737 5742 5747 5751 5756 5761 5765 5769 5772 5776 5779 5783 5788 5794 5798 5803 5809 5811 5814 5816 5819 5822 5826 5828 5831 5833 5836 5837 5840 5843 5845 5845 5848 5850 5855 5854 5857 5856 5857 5857 5858 5859 5858
5716 5720 5725 5730 5735 5739 5743 5748 5753 5757 5761 5765 5767 5772 5778 5783 5790 5797 5798 5801 5805 5808 5812 5815 5817 5819 5823 5825 5828 5831 5833 5836 5838 5836 5843 5844 5848 5850 5851 5852 5850 5852 5853 5854 5853
5703 5708 5712 5717 5722 5726 5731 5736 5740 5744 5748 5752 5755 5760 5765 5772 5780 5785 5789 5793 5796 5800 5803 5806 5809 5810 5815 5816 5820 5822 5826 5829 5829 5830 5838 5837 5840 5845 5845 5846 5846 5847 5845 5850 5849
5688 5694 5699 5704 5709 5714 5718 5722 5727 5731 5735 5739 5742 5747 5753 5761 5770 5777 5782 5784 5786 5789 5793 5796 5798 5800 5804 5808 5810 5813 5820 5820 5822 5825 5831 5829 5834 5837 5840 5841 5840 5843 5842 5843 5843
5673 5679 5685 5690 5695 5700 5704 5709 5712 5716 5720 5724 5729 5734 5739 5753 5758 5763 5768 5772 5774 5777 5781 5784 5788 5790 5794 5800 5802 5808 5812 5814 5813 5818 5821 5824 5828 5829 5836 5836 5835 5836 5837 5838 5840
5658 5663 5669 5675 5681 5685 5690 5694 5699 5702 5706 5710 5714 5719 5724 5744 5745 5750 5757 5759 5763 5765 5769 5773 5777 5781 5786 5790 5794 5799 5802 5804 5803 5810 5813 5815 5824 5824 5827 5827 5829 5830 5831 5832 5834
5641 5648 5654 5660 5665 5670 5675 5680 5684 5687 5690 5694 5699 5704 5714 5729 5733 5739 5741 5748 5748 5752 5758 5764 5768 5774 5776 5779 5785 5789 5788 5792 5802 5802 5804 5806 5817 5817 5816 5820 5822 5823 5824 5826 5827
5622 5629 5636 5642 5648 5654 5660 5665 5669 5672 5675 5679 5683 5691 5705 5716 5719 5724 5725 5733 5738 5744 5748 5753 5760 5762 5768 5771 5775 5773 5781 5789 5795 5788 5790 5794 5806 5809 5807 5809 5814 5814 5816 5819 5821
5602 5609 5617 5625 5632 5638 5644 5648 5653 5655 5660 5661 5667 5676 5687 5695 5702 5708 5717 5725 5727 5732 5740 5743 5745 5751 5761 5756 5764 5770 5774 5777 5782 5778 5781 5785 5795 5797 5798 5800 5805 5806 5808 5811 5813
5584 5591 5598 5606 5614 5621 5626 5629 5637 5640 5642 5644 5654 5671 5677 5689 5693 5701 5707 5714 5717 5719 5724 5729 5732 5742 5755 5750 5758 5762 5763 5766 5773 5769 5769 5775 5784 5787 5790 5792 5796 5798 5801 5803 5804
5564 5573 5580 5588 5596 5602 5606 5615 5628 5629 5631 5633 5642 5656 5660 5667 5676 5688 5694 5700 5704 5711 5715 5717 5721 5743 5734 5742 5745 5750 5752 5759 5762 5756 5762 5766 5773 5776 5781 5785 5786 5789 5792 5793 5796
5543 5553 5562 5570 5576 5580 5591 5610 5613 5613 5615 5618 5631 5643 5655 5656 5668 5677 5682 5690 5694 5700 5704 5705 5728 5723 5725 5730 5734 5739 5745 5753 5752 5749 5755 5754 5762 5768 5774 5776 5777 5780 5782 5784 5786
5519 5531 5542 5550 5552 5567 5579 5594 5597 5599 5598 5600 5614 5624 5638 5641 5651 5663 5672 5677 5681 5689 5695 5697 5714 5712 5715 5722 5727 5730 5739 5739 5742 5739 5745 5743 5748 5761 5764 5770 5771 5770 5771 5775 5775
5495 5508 5519 5525 5538 5549 5571 5572 5579 5585 5579 5592 5601 5615 5627 5629 5649 5655 5663 5663 5670 5678 5683 5689 5698 5703 5706 5721 5716 5730 5725 5729 5733 5732 5734 5740 5737 5756 5757 5762 5761 5759 5759 5760 5762
5472 5484 5496 5505 5515 5540 5543 5554 5564 5562 5561 5579 5585 5599 5610 5621 5631 5640 5648 5652 5661 5665 5671 5679 5687 5693 5704 5705 5711 5716 5717 5719 5721 5723 5719 5738 5728 5740 5750 5752 5749 5749 5750 5748 5748
5452 5462 5472 5485 5506 5513 5526 5535 5536 5533 5558 5563 5572 5591 5601 5611 5619 5629 5637 5642 5646 5653 5660 5668 5676 5685 5693 5697 5702 5706 5710 5711 5712 5712 5716 5721 5719 5733 5735 5736 5738 5740 5740 5733 5740
5438 5447 5457 5470 5483 5496 5508 5514 5517 5525 5538 5552 5569 5579 5586 5602 5604 5619 5627 5633 5640 5647 5655 5660 5667 5677 5685 5692 5698 5700 5702 5704 5703 5704 5713 5709 5713 5724 5721 5725 5724 5725 5724 5724 5729
5427 5436 5445 5459 5471 5483 5492 5493 5501 5513 5531 5543 5561 5563 5574 5585 5596 5606 5615 5627 5634 5640 5646 5653 5659 5671 5677 5685 5690 5692 5693 5698 5692 5693 5697 5702 5710 5715 5710 5713 5712 5716 5716 5716 5718
5417 5426 5437 5451 5464 5474 5478 5483 5494 5509 5522 5536 5544 5557 5568 5578 5586 5596 5605 5617 5626 5634 5641 5648 5652 5660 5667 5672 5677 5682 5688 5688 5676 5681 5687 5693 5699 5702 5701 5702 5704 5705 5707 5707 5708
5410 5418 5433 5443 5455 5460 5462 5477 5488 5501 5512 5528 5538 5549 5562 5567 5584 5591 5602 5613 5622 5632 5636 5640 5645 5651 5657 5661 5670 5675 5676 5678 5675 5678 5681 5688 5695 5695 5695 5692 5695 5696 5698 5699 5697
5403 5412 5424 5434 5443 5449 5457 5467 5486 5494 5506 5517 5530 5545 5554 5563 5575 5588 5593 5607 5617 5623 5628 5634 5636 5640 5648 5654 5659 5661 5664 5665 5668 5673 5679 5683 5688 5687 5690 5689 5688 5688 5689 5691 5691
5399 5409 5416 5426 5433 5444 5455 5463 5479 5490 5497 5514 5527 5537 5550 5559 5569 5580 5589 5599 5605 5613 5620 5625 5627 5632 5639 5644 5649 5650 5655 5657 5659 5662 5670 5676 5684 5683 5683 5683 5680 5681 5682 5682 5682
5395 5403 5409 5416 5431 5443 5454 5460 5470 5486 5495 5509 5523 5536 5545 5556 5565 5572 5582 5589 5598 5608 5613 5618 5621 5626 5632 5637 5642 5646 5650 5653 5654 5656 5665 5669 5675 5674 5674 5673 5669 5670 5673 5671 5672
5389 5399 5409 5414 5424 5437 5449 5456 5467 5480 5491 5502 5515 5525 5539 5550 5557 5566 5578 5584 5592 5599 5605 5609 5615 5621 5625 5626 5629 5633 5638 5644 5647 5652 5654 5665 5664 5667 5666 5661 5659 5660 5662 5661 5666
5388 5400 5410 5424 5433 5444 5450 5456 5465 5477 5484 5496 5513 5525 5535 5545 5560 5568 5574 5582 5587 5593 5598 5603 5608 5613 5616 5619 5621 5623 5629 5634 5639 5646 5646 5656 5657 5659 5654 5647 5647 5650 5652 5652 5654
5386 5401 5413 5422 5429 5435 5449 5461 5466 5477 5486 5502 5515 5523 5533 5547 5554 5562 5567 5574 5581 5586 5591 5597 5601 5605 5608 5611 5613 5615 5622 5626 5631 5634 5638 5640 5652 5642 5637 5635 5639 5639 5640 5639 5637